Location: *
(50.8512°N, 5.6907°E)
Time: 16:22:11
(UTC+00:00)

Cosmos 1726 Rocket - Pass Details

Date: 09 April 2020
Orbit: 602 x 631 km, 82.5° (Epoch: 02 June)

Event Time Altitude Azimuth Distance (km) Brightness Sun altitude
Rises 18:56:24 0° 176° (S) 2,888 6.7 -5.8°
Reaches altitude 10° 18:58:38 10° 172° (S) 1,991 5.9 -6.1°
Maximum altitude 19:02:56 55° 95° (E) 760 3.7 -6.7°
Drops below altitude 10° 19:07:19 10° 18° (NNE) 2,020 6.3 -7.4°
Sets 19:09:36 0° 14° (NNE) 2,935 7.1 -7.7°
